Location: Unspecified
(0.0000°N, 0.0000°E)
Time: 17:19:26
(UTC+00:00)

STARLINK 1067 - Pass Details

Date: 22 January 2020
Orbit: 549 x 550 km, 53.0° (Epoch: 22 January)

Event Time Altitude Azimuth Distance (km) Brightness Sun altitude
Rises 05:15:23 0° 226° (SW) 2,713 6.9 -13.2°
Reaches altitude 10° 05:17:42 10° 233° (SW) 1,817 6.0 -12.6°
Maximum altitude 05:21:36 41° 304° (WNW) 792 4.0 -11.7°
Drops below altitude 10° 05:25:30 10° 15° (NNE) 1,808 6.2 -10.8°
Sets 05:27:48 0° 22° (NNE) 2,698 7.2 -10.2°
